Location: Neu-Ulm
(48.3873°N, 10.0192°E)
Time: 08:43:12
(UTC+01:00)

Tiangong 1 - Visible Passes

Search period start: 16 January 2018 00:00
Search period end: 26 January 2018 00:00
Orbit: 265 x 288 km, 42.8° (Epoch: 15 January)

Date Brightness Start Highest point End Pass type
(mag) Time Alt. Az. Time Alt. Az. Time Alt. Az.
16 Jan 3.1 17:59:23 10° SSW 18:00:45 14° SSE 18:02:06 10° SE visible
17 Jan 2.8 17:58:52 10° SSW 18:00:37 17° SSE 18:02:19 10° ESE visible
18 Jan 2.6 17:58:23 10° SW 18:00:19 20° S 18:02:13 10° ESE visible
19 Jan 2.5 17:57:53 10° SW 17:59:53 21° S 18:01:53 10° ESE visible
20 Jan 2.6 17:57:19 10° WSW 17:59:19 21° S 18:01:18 10° SE visible
21 Jan 2.8 17:56:39 10° WSW 17:58:34 20° S 18:00:28 10° SE visible
22 Jan 3.2 17:55:57 10° WSW 17:57:39 17° SSW 17:59:21 10° SSE visible
23 Jan 3.4 17:55:16 10° SW 17:56:34 13° SSW 17:57:52 10° SSE visible
